This is the latest recevied weather packets stored in our database for station/object WD9EKA. If no packets are shown the sender has not sent any weather packets the latest 10 day(s).
| Time | Temp. | Humidity | Pressure | Rain* | Wind** | Luminosity | Snow |
|---|---|---|---|---|---|---|---|
| 1777404084 | 17.78° C | 74% | 1011.1 hPa | 0 mm | - | - | - |
| 1777403444 | 16.11° C | 75% | 1011 hPa | 0 mm | - | - | - |
| 1777403124 | 17.22° C | 77% | 1011.1 hPa | 0 mm | - | - | - |
| 1777402806 | 17.22° C | 77% | 1011 hPa | 0 mm | - | - | - |
| 1777402483 | 17.22° C | 74% | 1010.9 hPa | 0 mm | - | - | - |
| 1777402174 | 16.11° C | 77% | 1010.6 hPa | 0 mm | - | - | - |
| 1777401859 | 16.67° C | 77% | 1010.9 hPa | 0 mm | - | - | - |
| 1777401539 | 16.67° C | 78% | 1011.1 hPa | 0 mm | - | - | - |
| 1777401219 | 16.11° C | 77% | 1010.9 hPa | 0 mm | - | - | - |
| 1777400899 | 16.11° C | 75% | 1010.9 hPa | 0 mm | - | - | - |
| 1777400580 | 16.67° C | 77% | 1010.9 hPa | 0 mm | - | - | - |
| 1777400255 | 16.67° C | 77% | 1011 hPa | 0 mm | - | - | - |
| 1777399620 | 16.11° C | 79% | 1011.3 hPa | 0 mm | - | - | - |
| 1777399294 | 16.11° C | 80% | 1011.5 hPa | 0 mm | - | - | - |
| 1777398979 | 16.11° C | 79% | 1011.4 hPa | 0 mm | - | - | - |
| 1777398660 | 16.67° C | 78% | 1011.5 hPa | 0 mm | - | - | - |
| 1777398339 | 16.67° C | 80% | 1011.6 hPa | 0 mm | - | - | - |
| 1777397699 | 16.11° C | 78% | 1011.7 hPa | 0 mm | - | - | - |
| 1777397379 | 16.67° C | 80% | 1011.5 hPa | 0 mm | - | - | - |
| 1777397074 | 16.11° C | 79% | 1011.8 hPa | 0 mm | - | - | - |
| 1777396756 | 16.11° C | 80% | 1011.6 hPa | 0 mm | - | - | - |
| 1777396435 | 16.11° C | 80% | 1011.6 hPa | 0 mm | - | - | - |
| 1777396114 | 16.11° C | 80% | 1011.9 hPa | 0 mm | - | - | - |
| 1777395796 | 16.11° C | 78% | 1011.6 hPa | 0 mm | - | - | - |
| 1777395476 | 16.11° C | 79% | 1011.6 hPa | 0 mm | - | - | - |
* Rain latest hour (hover to see other rain measurements)
** Current wind speed in m/s (hover to see current wind gust speed)